Flag Weather past 2 weeks in Gatineau, Quebec, Canada

Now
18 °F

Passing clouds.


Feels Like: 3 °F
Forecast: 14 / 20 °F
Wind: 15 mph from West

Location: Ottawa Int'L. Ont.

Current Time: Nov 21, 2014 at 11:51:08 AM

Latest Report: Nov 21, 2014 at 11:00 AM


Visibility: 15 mi

Pressure: 30.29 "Hg

Humidity: 62%

Dew point: 7 °F

Location of GatineauLocation

Historic Weather in Gatineau — Graph

°F

Gatineau temperature yesterday

Maximum temperature yesterday: 30 °F (at 12:00 PM)
Minimum temperature yesterday: 21 °F (at 12:00 AM)
Average temperature yesterday: 26 °F

Past Weeks' High & Low Weather Summary

 TemperatureHumidityPressure
High59 °F (Nov 11, 3:00 PM)100% (Nov 7, 1:00 AM)30.28 "Hg (Nov 7, 1:00 AM)
Low14 °F (Nov 19, 6:00 AM)42% (Nov 9, 2:00 PM)29.44 "Hg (Nov 18, 12:00 AM)
Average32 °F76%29.90 "Hg
* Reported Nov 6 10:00 AM — Nov 21 10:00 AM, Gatineau, Weather by CustomWeather, © 2014

Note: Actual official high and low records may vary slightly from our data, if they occured in-between our weather recording intervals... More about our weather records

Advertising

Gatineau weather history for previous 24 hours

 ConditionsComfort  
Time TempWeatherWind HumidityBarometerVisibility
10:00 AM
Nov 21
16 °FPassing clouds.14 mph67%30.27 "Hg15 mi
9:00 AM16 °FPassing clouds.16 mph62%30.24 "Hg15 mi
8:00 AM16 °FPassing clouds.15 mph73%30.20 "Hg15 mi
7:00 AM16 °FPassing clouds.17 mph73%30.15 "Hg15 mi
6:00 AM16 °FPassing clouds.12 mph73%30.10 "Hg15 mi
5:00 AM18 °FPassing clouds.15 mph73%30.05 "Hg15 mi
4:00 AM19 °FPassing clouds.12 mph79%30.01 "Hg15 mi
3:00 AM19 °FPassing clouds.12 mph86%29.97 "Hg15 mi
2:00 AM19 °FPassing clouds.10 mph86%29.93 "Hg15 mi
1:00 AM21 °FPassing clouds.12 mph86%29.90 "Hg15 mi
12:00 AM23 °FOvercast.12 mph86%29.87 "Hg15 mi
11:00 PM
Nov 20
21 °FLight snow. Mostly cloudy.9 mph86%29.84 "Hg15 mi
10:00 PM23 °FMostly cloudy.12 mph68%29.83 "Hg10 mi
9:00 PM23 °FPassing clouds.14 mph63%29.80 "Hg10 mi
8:00 PM25 °FPassing clouds.14 mph59%29.79 "Hg15 mi
7:00 PM25 °FPassing clouds.16 mph59%29.77 "Hg15 mi
6:00 PM25 °FPassing clouds.13 mph59%29.75 "Hg15 mi
5:00 PM27 °FPassing clouds.15 mph54%29.73 "Hg15 mi
4:00 PM28 °FScattered clouds.18 mph51%29.71 "Hg15 mi
3:00 PM28 °FPartly sunny.17 mph55%29.69 "Hg15 mi
2:00 PM28 °FBroken clouds.23 mph55%29.68 "Hg15 mi
1:00 PM30 °FPartly sunny.20 mph51%29.67 "Hg15 mi
12:00 PM30 °FBroken clouds.17 mph51%29.67 "Hg15 mi
11:00 AM28 °FScattered clouds.21 mph55%29.68 "Hg15 mi
Weather by CustomWeather, © 2014

See weather overviewHow to use our weather pages